Wind_Speed
18 20 23 24 24 26 27 28 30 29 29 28 28 29 30 30 30 31 31 31 32 32 34 34 34 35 35 36 36 36 37 38 39 40 41 41 42 43 44 44 45 44 44 44
19 21 24 25 24 26 27 28 29 29 28 26 29 30 31 30 31 31 31 31 32 32 33 34 34 34 35 35 36 36 36 37 37 38 39 40 40 40 40 41 41 41 41 42
20 21 23 23 24 26 27 27 28 29 27 27 28 29 30 31 31 31 31 32 32 32 33 33 33 34 34 35 35 35 35 36 36 36 37 37 38 38 38 38 39 39 39 40
22 22 22 22 23 25 26 26 26 26 27 27 27 28 29 30 30 30 30 31 31 32 32 32 32 33 34 34 34 34 35 35 36 36 36 36 37 37 37 38 38 38 38 38
23 23 24 23 22 23 25 25 25 26 26 26 26 27 27 27 28 28 29 29 30 31 31 31 32 32 33 33 33 34 34 35 35 35 35 36 36 36 36 36 36 36 35 35
24 25 25 24 23 23 23 24 25 25 25 25 25 26 26 26 27 28 28 29 29 30 30 31 31 31 31 32 32 33 34 34 34 34 34 35 35 35 35 34 34 34 33 33
25 25 25 25 24 23 23 24 24 24 24 24 25 25 25 26 26 27 28 29 29 29 30 30 30 30 30 31 31 32 32 32 33 33 33 33 33 33 33 33 32 32 32 32
25 25 26 26 25 24 24 25 24 24 24 24 25 25 26 27 27 27 28 29 29 29 29 30 30 30 30 30 31 31 31 31 31 31 31 32 32 32 31 31 31 31 31 30
26 25 26 26 25 25 25 25 25 25 24 25 25 25 26 26 27 28 28 28 29 29 29 29 30 30 30 30 30 30 30 30 30 31 31 31 31 31 31 31 31 30 30 29
28 28 27 26 26 26 26 26 26 26 25 26 26 26 26 26 26 27 27 27 28 29 29 30 30 30 30 31 31 30 31 31 31 31 30 30 30 30 30 30 30 30 29 29
29 28 28 27 27 26 25 26 26 26 26 26 26 25 25 25 25 26 26 27 27 28 28 29 30 30 30 31 31 31 31 31 31 31 30 30 31 30 30 30 29 28 28 27
30 30 28 26 27 27 26 26 26 25 24 24 25 25 24 24 24 25 26 27 27 27 27 27 28 28 29 30 30 30 31 31 31 31 31 31 30 30 29 29 28 28 28 28
31 30 28 27 27 27 26 25 24 24 24 24 24 23 23 24 24 25 25 26 26 26 26 26 27 27 28 28 28 29 29 29 29 29 29 29 29 29 28 28 28 28 28 28
30 29 28 27 26 25 23 23 22 23 23 23 24 24 24 24 24 24 25 25 25 25 26 26 26 26 27 27 27 27 28 28 28 28 28 28 28 28 28 28 28 28 28 29
30 29 27 25 24 23 21 21 21 21 22 23 23 24 24 24 23 24 24 24 25 25 26 26 26 26 26 26 27 27 27 27 27 27 27 27 28 28 28 28 28 29 29 29
30 29 27 25 23 23 22 22 21 21 22 22 23 23 23 23 24 24 24 25 25 25 26 26 27 27 27 27 28 28 28 29 29 29 29 29 28 29 29 29 29 29 29 30
30 29 27 26 24 23 23 23 22 23 23 23 22 23 23 23 24 24 25 25 26 26 26 26 27 28 28 28 29 29 29 30 30 30 30 30 30 30 29 29 29 30 30 31
30 29 28 26 25 24 24 24 23 24 24 23 23 23 23 24 24 24 25 25 26 26 26 27 27 27 27 28 28 29 30 30 31 31 31 31 31 31 31 31 31 31 32 32
30 29 28 27 26 26 26 25 25 25 24 23 23 23 23 24 24 24 24 24 25 25 25 25 26 27 28 28 28 29 29 30 30 31 31 32 32 32 33 33 33 34 34 34
30 29 28 27 27 26 26 25 24 24 24 23 23 22 22 23 24 24 24 24 24 24 25 25 26 26 27 28 28 29 29 30 30 31 32 32 33 33 34 35 35 35 36 36
31 29 28 28 27 26 25 25 24 22 22 22 23 22 22 23 23 23 23 24 25 25 26 26 26 27 27 27 28 29 29 29 30 30 31 32 33 33 34 34 35 36 36 37
31 29 28 28 27 26 25 24 23 21 21 21 21 21 21 22 22 22 23 24 25 25 26 26 27 27 28 28 28 29 29 29 30 30 31 32 32 33 34 34 35 36 36 37
31 29 28 27 26 25 24 23 22 21 20 20 21 21 21 22 22 22 22 23 24 25 26 26 27 28 28 28 28 29 29 30 30 30 31 31 32 32 33 34 35 36 36 37
31 29 28 26 25 23 22 21 20 21 21 21 21 22 22 22 22 23 23 24 24 25 25 26 26 27 27 27 27 28 28 28 29 29 30 30 30 31 32 33 34 35 36 37
30 29 27 25 24 23 22 21 21 21 21 21 22 22 23 23 23 23 23 24 24 25 25 25 25 25 26 26 26 27 28 28 29 29 29 30 30 31 32 33 33 34 35 36
29 28 27 25 24 23 22 22 22 22 22 22 23 23 23 24 24 24 25 25 25 25 25 26 26 27 27 28 28 28 29 29 29 30 31 31 32 32 33 34 34 35 35 36
30 28 27 26 25 24 23 23 23 23 23 24 24 24 24 24 25 25 25 25 26 26 27 27 28 29 29 30 30 30 31 32 32 32 33 33 33 34 34 34 35 35 36 36
Wind_Direction
278 272 271 268 265 263 262 262 262 261 259 258 258 257 256 254 253 253 254 253 253 253 252 253 254 255 256 256 258 259 260 260 262 263 264 266 267 268 270 271 272 273 274 274
285 278 274 273 270 267 264 264 264 263 261 260 258 257 257 255 254 254 254 254 253 253 253 254 254 254 255 256 258 259 260 261 262 264 265 266 267 269 271 272 272 273 273 274
293 284 282 279 276 271 268 267 266 266 264 261 261 260 260 257 255 254 254 255 254 254 255 255 255 255 255 256 257 258 259 260 262 264 266 268 269 270 272 272 272 273 273 273
297 292 288 288 281 276 272 269 267 268 266 265 264 262 260 258 256 256 256 255 255 255 255 256 256 256 255 256 257 258 259 261 263 265 267 268 269 270 271 272 273 273 273 273
301 297 295 292 287 280 274 271 269 268 267 267 265 263 261 259 258 257 257 257 257 256 257 257 257 257 256 256 257 258 260 261 263 265 267 268 269 270 271 272 273 273 273 273
304 300 300 299 292 285 279 274 271 270 270 269 266 264 263 260 258 258 257 257 257 257 257 258 258 257 257 257 257 259 261 262 264 265 267 268 269 270 270 271 272 272 273 273
306 301 300 300 296 287 282 279 273 271 270 268 267 265 264 262 260 258 257 257 257 257 257 257 257 257 257 257 258 260 261 262 263 265 266 268 269 269 270 271 272 273 273 272
307 302 300 300 297 289 283 279 274 271 268 266 265 264 262 262 261 259 258 257 257 257 257 257 257 257 258 258 258 260 261 262 263 265 267 268 269 270 271 272 272 273 273 272
309 302 298 296 295 291 284 278 273 270 267 266 266 265 262 261 260 260 259 258 257 257 257 257 257 257 257 258 259 260 261 263 264 266 267 268 269 269 271 272 272 273 273 272
310 301 294 292 290 287 282 278 274 269 268 268 268 266 263 261 259 259 259 259 258 258 257 257 257 257 257 258 259 261 262 263 265 266 266 267 269 270 271 271 271 271 272 272
313 306 298 292 288 286 281 278 274 270 270 269 267 265 263 262 261 260 260 260 260 259 259 258 256 256 258 259 260 261 262 263 264 265 267 268 269 270 271 271 271 271 270 270
316 311 304 298 291 287 282 278 273 269 269 268 265 264 263 262 263 262 261 261 260 260 260 258 257 258 259 260 261 261 262 262 264 266 267 268 268 269 269 270 269 269 269 270
317 315 307 300 295 289 283 277 273 269 268 267 266 265 264 264 263 263 262 261 261 260 259 258 258 260 261 261 260 261 262 263 265 266 267 268 268 268 269 269 270 269 269 270
318 316 310 302 298 293 286 277 275 271 268 266 265 265 265 266 264 262 261 260 260 260 259 259 260 261 262 262 261 262 263 264 265 267 268 269 268 268 269 269 269 270 271 272
316 315 311 304 300 297 289 281 277 275 272 270 267 266 265 266 263 261 261 261 261 261 260 260 261 262 264 263 263 263 263 264 265 267 268 269 269 269 269 269 270 270 271 272
313 312 309 304 301 297 292 284 278 275 274 272 270 266 264 265 264 263 261 261 261 262 261 262 262 263 264 265 264 264 265 265 267 268 268 269 269 270 270 269 270 270 271 272
312 309 306 304 301 297 293 289 281 275 274 272 272 268 266 265 265 265 264 263 262 263 264 263 264 265 265 266 265 265 266 267 267 268 268 268 269 270 270 270 270 271 272 273
313 309 305 302 300 298 295 290 284 279 276 274 272 269 268 268 267 267 266 265 264 264 265 265 265 266 267 267 267 268 268 268 268 269 269 269 269 270 270 271 271 272 273 273
311 308 306 303 298 296 294 290 284 279 277 275 273 271 269 268 268 268 268 267 265 264 265 266 267 267 267 268 269 270 271 270 269 269 269 270 270 270 271 272 272 272 272 273
311 307 305 302 300 297 296 291 286 282 277 273 273 273 271 271 270 270 269 267 267 266 267 267 268 269 270 270 271 271 272 272 271 271 270 271 271 271 271 272 273 273 273 273
310 306 304 302 300 297 294 292 289 285 278 273 273 273 272 273 272 272 270 268 268 269 269 269 269 270 271 272 273 273 274 274 274 273 273 273 273 274 274 273 273 274 274 274
309 306 305 302 300 296 293 290 287 283 278 275 273 273 274 275 274 273 272 271 270 271 271 271 272 272 273 274 275 275 275 276 276 276 276 275 275 275 275 275 275 276 276 275
308 305 304 303 300 297 293 289 285 282 279 276 274 274 276 276 276 274 274 274 274 274 274 275 275 274 275 275 275 276 276 277 277 278 277 277 277 277 277 277 277 277 277 276
306 304 303 301 299 296 292 288 286 284 281 278 276 275 276 277 277 277 277 278 277 277 277 277 277 276 276 276 276 277 278 278 279 279 279 279 279 279 280 280 280 279 279 278
302 301 299 298 296 293 290 289 290 289 284 281 279 279 278 277 278 278 279 280 279 278 277 277 278 277 277 278 279 280 281 281 280 280 280 280 281 281 281 282 283 282 282 281
299 298 296 294 292 290 289 288 288 289 287 285 282 281 282 281 280 280 280 280 281 280 279 278 278 277 278 279 280 281 282 282 282 282 282 282 282 282 283 283 284 284 284 283
295 294 293 291 289 288 288 288 288 287 286 285 284 283 283 283 282 281 281 281 281 281 281 281 279 279 279 279 280 281 281 282 283 284 284 283 283 283 284 285 285 285 285 284
Height
5643 5642 5641 5641 5641 5641 5641 5641 5641 5643 5644 5646 5646 5647 5648 5649 5651 5653 5655 5657 5659 5661 5663 5665 5667 5669 5671 5673 5674 5675 5677 5678 5680 5681 5681 5682 5682 5683 5683 5683 5683 5683 5683 5683
5638 5637 5635 5633 5634 5634 5633 5634 5633 5634 5636 5638 5637 5638 5639 5641 5643 5645 5647 5649 5650 5652 5654 5656 5658 5659 5661 5663 5664 5666 5667 5668 5669 5670 5671 5671 5672 5672 5672 5672 5672 5672 5672 5671
5632 5630 5628 5628 5629 5627 5626 5626 5626 5626 5629 5629 5629 5630 5631 5632 5634 5636 5638 5639 5641 5643 5645 5646 5648 5650 5652 5653 5654 5656 5657 5658 5659 5660 5660 5661 5661 5662 5662 5661 5661 5661 5661 5660
5625 5624 5622 5625 5620 5619 5618 5618 5618 5618 5619 5620 5621 5622 5623 5624 5625 5627 5629 5630 5632 5634 5635 5637 5639 5640 5642 5644 5645 5646 5647 5648 5649 5650 5650 5651 5651 5651 5651 5651 5651 5650 5650 5650
5619 5617 5615 5616 5614 5612 5611 5611 5611 5610 5611 5612 5613 5613 5614 5616 5617 5618 5620 5621 5623 5625 5626 5628 5630 5631 5633 5634 5635 5637 5638 5639 5639 5640 5640 5641 5641 5641 5641 5641 5641 5640 5640 5640
5613 5610 5608 5609 5606 5604 5604 5603 5604 5603 5604 5604 5605 5606 5608 5608 5609 5610 5611 5613 5614 5616 5617 5619 5620 5622 5623 5625 5626 5627 5628 5629 5630 5630 5631 5631 5631 5631 5631 5631 5631 5631 5630 5630
5607 5603 5602 5602 5599 5598 5598 5598 5596 5596 5596 5597 5597 5598 5599 5600 5601 5602 5603 5604 5605 5607 5608 5610 5611 5613 5614 5615 5617 5618 5618 5619 5620 5621 5621 5622 5622 5622 5622 5622 5622 5621 5621 5621
5601 5598 5598 5594 5592 5591 5590 5589 5589 5589 5589 5589 5590 5590 5591 5592 5592 5593 5594 5596 5597 5598 5600 5601 5603 5604 5605 5606 5608 5609 5610 5610 5611 5611 5612 5612 5613 5613 5613 5613 5613 5612 5612 5612
5596 5595 5590 5587 5585 5583 5582 5581 5581 5581 5581 5581 5582 5582 5583 5583 5584 5585 5586 5587 5588 5590 5591 5593 5594 5595 5597 5598 5599 5600 5601 5601 5602 5603 5603 5603 5604 5604 5604 5604 5604 5603 5603 5603
5588 5586 5583 5580 5577 5576 5574 5573 5573 5573 5573 5573 5573 5574 5574 5575 5576 5577 5578 5579 5580 5581 5582 5584 5585 5586 5588 5589 5590 5591 5592 5593 5593 5594 5594 5594 5595 5595 5595 5595 5595 5595 5594 5594
5582 5578 5575 5573 5569 5568 5566 5565 5565 5565 5565 5565 5565 5565 5565 5567 5568 5569 5570 5571 5572 5573 5574 5575 5576 5577 5579 5580 5581 5582 5583 5584 5584 5585 5585 5586 5586 5586 5586 5586 5586 5586 5586 5586
5576 5571 5567 5565 5562 5559 5558 5557 5556 5557 5557 5557 5557 5558 5558 5559 5560 5561 5562 5563 5564 5564 5565 5566 5567 5569 5570 5570 5572 5573 5574 5575 5575 5576 5576 5576 5577 5577 5577 5577 5577 5577 5577 5578
5568 5564 5560 5557 5554 5551 5549 5548 5548 5549 5549 5550 5551 5551 5552 5552 5553 5554 5555 5555 5556 5557 5557 5558 5560 5560 5561 5562 5563 5564 5565 5566 5566 5567 5567 5567 5568 5568 5568 5568 5568 5568 5568 5568
5562 5558 5554 5551 5547 5544 5541 5541 5541 5542 5542 5543 5544 5544 5545 5545 5546 5546 5547 5548 5549 5549 5550 5551 5552 5552 5553 5554 5554 5555 5556 5557 5558 5558 5559 5559 5559 5559 5559 5560 5560 5560 5560 5560
5556 5552 5548 5545 5541 5538 5536 5535 5535 5536 5536 5536 5537 5537 5537 5538 5538 5539 5540 5540 5541 5542 5543 5543 5544 5545 5545 5546 5547 5547 5548 5549 5549 5550 5550 5550 5550 5550 5551 5551 5551 5551 5551 5550
5551 5547 5543 5539 5536 5534 5532 5531 5530 5530 5530 5530 5530 5530 5530 5531 5531 5532 5532 5533 5534 5534 5535 5536 5536 5537 5537 5538 5539 5539 5540 5540 5541 5541 5541 5541 5541 5541 5542 5542 5542 5542 5541 5541
5544 5541 5537 5534 5531 5528 5526 5525 5524 5523 5523 5523 5523 5523 5523 5523 5524 5524 5525 5525 5526 5526 5527 5528 5528 5529 5529 5530 5530 5531 5531 5531 5532 5532 5532 5532 5532 5532 5532 5532 5532 5532 5532 5531
5537 5534 5530 5528 5525 5522 5520 5518 5517 5517 5516 5516 5516 5516 5516 5516 5516 5517 5517 5517 5518 5518 5519 5519 5520 5520 5521 5521 5521 5522 5522 5522 5522 5522 5522 5523 5523 5523 5523 5523 5522 5522 5522 5521
5530 5527 5524 5520 5518 5516 5514 5512 5511 5510 5509 5509 5508 5508 5508 5508 5509 5509 5509 5509 5510 5510 5511 5511 5511 5512 5512 5512 5512 5512 5512 5512 5512 5512 5512 5512 5512 5512 5512 5512 5512 5511 5511 5510
5523 5520 5516 5513 5511 5509 5507 5505 5503 5502 5502 5501 5501 5501 5501 5501 5501 5501 5501 5502 5502 5502 5502 5503 5503 5503 5503 5503 5503 5503 5503 5503 5502 5502 5502 5502 5502 5501 5501 5501 5500 5500 5500 5499
5516 5512 5509 5506 5504 5501 5499 5498 5496 5495 5494 5494 5494 5494 5494 5494 5494 5494 5494 5494 5494 5494 5494 5494 5494 5494 5494 5494 5494 5494 5493 5493 5492 5492 5492 5491 5491 5490 5490 5489 5489 5488 5488 5487
5508 5504 5501 5499 5496 5494 5492 5491 5490 5489 5488 5488 5488 5488 5488 5487 5487 5486 5486 5486 5486 5486 5486 5486 5486 5485 5485 5485 5484 5484 5484 5483 5482 5482 5481 5481 5480 5479 5479 5478 5477 5476 5476 5475
5500 5497 5494 5491 5489 5487 5485 5484 5483 5482 5482 5481 5481 5481 5481 5480 5480 5479 5479 5479 5478 5478 5477 5477 5477 5476 5476 5475 5475 5474 5474 5473 5472 5472 5471 5470 5469 5468 5467 5466 5465 5464 5463 5463
5492 5489 5487 5484 5482 5480 5479 5477 5477 5476 5475 5475 5474 5474 5474 5473 5473 5472 5472 5471 5470 5470 5469 5468 5468 5467 5467 5466 5465 5465 5464 5463 5462 5461 5460 5459 5458 5457 5456 5455 5454 5453 5451 5450
5484 5482 5479 5477 5475 5474 5472 5471 5470 5469 5469 5468 5467 5467 5466 5466 5465 5464 5464 5463 5462 5461 5460 5460 5459 5458 5458 5457 5456 5455 5454 5453 5452 5451 5450 5449 5448 5447 5445 5444 5442 5441 5439 5438
5476 5474 5472 5470 5468 5467 5465 5464 5464 5463 5462 5461 5460 5459 5458 5458 5457 5456 5455 5454 5453 5452 5452 5451 5450 5449 5449 5448 5447 5446 5445 5444 5442 5441 5440 5439 5437 5436 5434 5433 5431 5429 5427 5425
5468 5466 5464 5462 5461 5459 5458 5457 5457 5456 5455 5454 5453 5452 5451 5450 5449 5448 5447 5446 5445 5444 5443 5442 5441 5440 5439 5438 5437 5436 5435 5434 5432 5431 5429 5427 5426 5424 5423 5421 5419 5417 5415 5413